Flag for U.S.A. Weather past 2 weeks in Birmingham, Alabama, U.S.A.

Now
53 °F

Sunny.


Feels Like: 53 °F
Forecast: 49 / 71 °F
Wind: 3 mph from Northwest

Location: Birmingham International Airport

Current Time: Apr 21, 2015 at 9:05:02 AM

Latest Report: Apr 21, 2015 at 7:53 AM


Visibility: 10 mi

Pressure: 30.04 "Hg

Humidity: 74%

Dew point: 45 °F

Location of BirminghamLocation

Historic Weather in Birmingham — Graph

°F

Birmingham temperature yesterday

Maximum temperature yesterday: 72 °F (at 12:53 PM)
Minimum temperature yesterday: 57 °F (at 10:53 PM)
Average temperature yesterday: 66 °F

Past Weeks' High & Low Weather Summary

 TemperatureHumidityPressure
High83 °F (Apr 8, 2:53 PM)100% (Apr 16, 9:53 PM)30.22 "Hg (Apr 16, 9:53 PM)
Low47 °F (Apr 21, 5:53 AM)22% (Apr 11, 4:53 PM)29.67 "Hg (Apr 19, 2:53 PM)
Average67 °F80%30.03 "Hg
* Reported Apr 6 7:53 AM — Apr 21 7:53 AM, Birmingham, Weather by CustomWeather, © 2015

Note: Actual official high and low records may vary slightly from our data, if they occured in-between our weather recording intervals... More about our weather records

Advertising

Birmingham weather history for previous 24 hours

 ConditionsComfort  
Time TempWeatherWind HumidityBarometerVisibility
7:53 AM
Tue, Apr 21
53 °FSunny.3 mph74%30.04 "Hg10 mi
6:53 AM48 °FClear.No wind96%30.01 "Hg10 mi
5:53 AM47 °FClear.3 mph97%29.98 "Hg10 mi
4:53 AM48 °FClear.No wind93%29.96 "Hg10 mi
3:53 AM49 °FClear.No wind90%29.96 "Hg10 mi
2:53 AM51 °FClear.3 mph80%29.95 "Hg10 mi
1:53 AM53 °FClear.3 mph74%29.95 "Hg10 mi
12:53 AM56 °FClear.5 mph67%29.96 "Hg10 mi
11:53 PM
Mon, Apr 20
57 °FClear.9 mph67%29.96 "Hg10 mi
10:53 PM57 °FClear.7 mph69%29.94 "Hg10 mi
9:53 PM59 °FClear.6 mph67%29.93 "Hg10 mi
8:53 PM61 °FClear.10 mph62%29.90 "Hg10 mi
7:53 PM63 °FPassing clouds.9 mph58%29.87 "Hg10 mi
6:53 PM66 °FPassing clouds.15 mph49%29.83 "Hg10 mi
5:53 PM69 °FPassing clouds.18 mph42%29.81 "Hg10 mi
4:53 PM70 °FScattered clouds.18 mph44%29.78 "Hg10 mi
3:53 PM72 °FScattered clouds.23 mph44%29.77 "Hg10 mi
2:53 PM72 °FScattered clouds.16 mph49%29.78 "Hg10 mi
1:53 PM72 °FPartly sunny.15 mph52%29.79 "Hg10 mi
12:53 PM72 °FScattered clouds.13 mph48%29.79 "Hg10 mi
11:53 AM71 °FScattered clouds.18 mph53%29.80 "Hg10 mi
10:53 AM71 °FPassing clouds.17 mph57%29.79 "Hg10 mi
9:53 AM69 °FPassing clouds.14 mph66%29.78 "Hg10 mi
Weather by CustomWeather, © 2015

See weather overviewHow to use our weather pages